Location: Eastlake (historical)
(39.0077°N, 122.6678°W)
Time: 09:53:44
(UTC+00:00)

ATLAS CENTAUR R/B - Pass Details

Date: 25 November 2020
Orbit: 477 x 668 km, 64.7° (Epoch: 12 January)

Event Time Altitude Azimuth Distance (km) Brightness Sun altitude
Exits shadow 13:58:38 - 347° (NNW) 2,309 4.2 -12.8°
Reaches altitude 10° 14:00:35 10° 4° (N) 1,700 3.7 -12.5°
Maximum altitude 14:03:12 18° 48° (NE) 1,313 3.6 -12.0°
Drops below altitude 10° 14:05:54 10° 92° (E) 1,753 5.2 -11.5°
Sets 14:08:42 0° 112° (ESE) 2,677 7.1 -11.0°
